Regional Weather Roundup
Issued by NWS

Home | Current Version | Previous Version | Graphics & Text | Print | Product List | Glossary Off
Versions: 1 2 3 4 5 6 7 8 9 10 11 12 13 14 15 16 17 18 19 20 21 22 23 24 25 26 27 28 29 30 31 32 33 34 35 36 37 38 39 40 41 42 43 44 45 46 47 48 49 50

000
ASUS43 KTOP 181559
RWRKS

WEATHER ROUNDUP FOR KANSAS
NATIONAL WEATHER SERVICE GOODLAND KS
1100 AM CDT FRI AUG 18 2017

NOTE:  "FAIR" INDICATES FEW OR NO CLOUDS BELOW 12,000 FEET WITH NO
SIGNIFICANT WEATHER AND/OR OBSTRUCTIONS TO VISIBILITY.

KSZ001>006-013>018-027>032-041>047-181700-
NORTHWEST KANSAS

CITY           SKY/WX    TMP DP  RH WIND       PRES   REMARKS
GOODLAND       SUNNY     73  59  61 NW15      30.09R
HAYS           SUNNY     78  63  59 W16       30.02F
HILL CITY      SUNNY     77  65  66 W12       30.03S
RUSSELL        SUNNY     79  61  53 SW15      30.00S
$$

KSZ061>065-074>080-084>089-181700-
SOUTHWEST KANSAS

CITY           SKY/WX    TMP DP  RH WIND       PRES   REMARKS
DODGE CITY     SUNNY     81  55  40 SW16G25   30.07R
ELKHART          N/A     71  64  78 S14         N/A
GARDEN CITY    SUNNY     76  59  55 SW20      30.09S
GREAT BEND     SUNNY     77  65  66 W9        30.03R
LIBERAL        SUNNY     77  61  57 SW12      30.10S
$$

KSZ066>073-081>083-090>101-181700-
SOUTHEAST KANSAS

CITY           SKY/WX    TMP DP  RH WIND       PRES   REMARKS
CHANUTE        PTSUNNY   77  70  79 S9        29.99F
COFFEYVILLE    MOSUNNY   83  76  79 S10       30.00S
HUTCHINSON     MOSUNNY   74  65  73 CALM      30.00F
MEDICINE LODGE   N/A     80  62  54 N6        30.01F
NEWTON         SUNNY     77  66  68 CALM      30.01F
PARSONS        MOSUNNY   81  74  79 S6        30.01F
WICHITA INTL   CLOUDY    82  66  58 S12       29.98F
WICHITA JABRA  SUNNY     82  66  58 S8        29.99F
WINFIELD       CLOUDY    76  68  76 SE5       30.01F
$$

KSZ007>012-019>026-033>040-048>060-102>105-181700-
NORTHEAST KANSAS

CITY           SKY/WX    TMP DP  RH WIND       PRES   REMARKS
CONCORDIA      SUNNY     81  63  54 W8        29.99R
EMPORIA        MOSUNNY   77  65  66 VRB5      29.98F
LAWRENCE       CLOUDY    73  66  78 CALM      29.97F
MANHATTAN      SUNNY     80  66  62 SW6       29.98R
OLATHE IND     CLOUDY    72  65  78 S9        29.99F
OLATHE EXE     CLOUDY    71  65  81 S7        30.00R
SALINA         SUNNY     85  61  44 W8        29.99S
TOPEKA BILLARD PTSUNNY   78  67  68 S5        29.97S
TOPEKA FORBES  MOSUNNY   80  67  64 SW6       29.98S
$$




USA.gov is the U.S. government's official web portal to all federal, state and local government web resources and services.